Terug naar catalogus

COSMOS 2355

ActiefNavigatiePO
NORAD 25366·PAYLOAD·🇷🇺 Russia

Gelanceerd Jun 15, 1998 vanaf Plesetsk Cosmodrome

Loading…

Volgende Passages (komende 24 uur)

TLE

VersSource: Space-Track

Epoch: Sep 14, 2026, 12:38 UTC

1 25366U 98036D   26257.52645609  .00000008  00000-0 -88758-5 0  9997
2 25366  82.5849 288.0323 0353532   7.5795 145.5664 12.21820929259935

Volg COSMOS 2355 in realtime met AllMySat

Download on the App Store